Location: Unspecified
(0.0000°N, 0.0000°E)
Time: 12:13:04
(UTC+00:00)

S-56A Canister/Altair - Pass Details

Date: 19 November 2019
Orbit: 633 x 2499 km, 38.9° (Epoch: 10 December)

Event Time Altitude Azimuth Distance (km) Brightness Sun altitude
Rises 23:47:09 0° 339° (NNW) 2,911 - -70.4°
Reaches altitude 10° 23:50:05 10° 0° (N) 2,004 - -70.4°
Maximum altitude 23:53:03 17° 43° (NE) 1,640 - -70.3°
Drops below altitude 10° 23:56:17 10° 85° (E) 2,212 - -70.2°
Sets 23:59:45 0° 104° (ESE) 3,361 - -70.1°
